Jupiter, Florida Weather Center

Moon Phase Calendar



Online Cameras

 


      

Current Conditions in Jupiter
7/23/2021 10:32:31 PM

79°F
Feels Like 79
Rain
Humidity
90%
Pressure
30.03"
Wind
2 mph (NE)
Dew Point
76°F
UV Index
0/10 (Low)
Visibility
6 mi

Hourly Forecast

Date & Time Fri, Jul 23
10:00 PM
Fri, Jul 23
11:00 PM
Sat, Jul 24
12:00 AM
Sat, Jul 24
1:00 AM
Sat, Jul 24
2:00 AM
Sat, Jul 24
3:00 AM
Sat, Jul 24
4:00 AM
Sat, Jul 24
5:00 AM
Sat, Jul 24
6:00 AM
Sat, Jul 24
7:00 AM
Sat, Jul 24
8:00 AM
Sat, Jul 24
9:00 AM
Sat, Jul 24
10:00 AM
Sat, Jul 24
11:00 AM
Sat, Jul 24
12:00 PM
Sat, Jul 24
1:00 PM
Sat, Jul 24
2:00 PM
Sat, Jul 24
3:00 PM
Sat, Jul 24
4:00 PM
Sat, Jul 24
5:00 PM
Sat, Jul 24
6:00 PM
Sat, Jul 24
7:00 PM
Sat, Jul 24
8:00 PM
Sat, Jul 24
9:00 PM
Sat, Jul 24
10:00 PM
Sat, Jul 24
11:00 PM
Sun, Jul 25
12:00 AM
Sun, Jul 25
1:00 AM
Sun, Jul 25
2:00 AM
Sun, Jul 25
3:00 AM
Sun, Jul 25
4:00 AM
Sun, Jul 25
5:00 AM
Sun, Jul 25
6:00 AM
Sun, Jul 25
7:00 AM
Sun, Jul 25
8:00 AM
Sun, Jul 25
9:00 AM
Sun, Jul 25
10:00 AM
Sun, Jul 25
11:00 AM
Sun, Jul 25
12:00 PM
Sun, Jul 25
1:00 PM
Sun, Jul 25
2:00 PM
Sun, Jul 25
3:00 PM
Sun, Jul 25
4:00 PM
Sun, Jul 25
5:00 PM
Sun, Jul 25
6:00 PM
Sun, Jul 25
7:00 PM
Sun, Jul 25
8:00 PM
Sun, Jul 25
9:00 PM
Condition
Rain

Rain

Rain

Rain

Clouds

Rain

Rain

Rain

Rain

Rain

Rain

Rain

Rain

Clear

Clear

Rain

Clear

Clear

Clear

Clouds

Clouds

Clouds

Clouds

Clear

Clear

Clear

Clear

Rain

Clear

Clear

Clear

Clear

Clear

Clear

Clear

Clear

Clear

Clear

Clear

Clear

Clear

Clouds

Clouds

Clouds

Clouds

Clouds

Rain

Rain
Temperature 80°F79°F80°F80°F80°F80°F80°F80°F78°F78°F79°F80°F82°F83°F84°F85°F86°F86°F86°F86°F85°F84°F83°F83°F82°F82°F82°F81°F81°F80°F80°F80°F80°F80°F81°F83°F85°F86°F86°F87°F87°F86°F85°F85°F84°F84°F83°F83°F
Feels Like 80°F79°F80°F80°F80°F85°F84°F80°F80°F80°F79°F85°F87°F89°F91°F92°F92°F92°F92°F92°F92°F91°F90°F89°F88°F88°F87°F86°F85°F84°F84°F84°F84°F85°F86°F88°F90°F91°F92°F92°F93°F92°F91°F91°F89°F89°F88°F88°F
Cloudiness 100%100%100%100%100%100%99%99%85%69%59%12%9%6%5%5%5%7%10%13%22%23%21%5%2%2%1%1%1%0%0%0%0%1%2%5%3%3%5%7%8%20%23%26%29%40%48%81%
Visibility 5 mi6 mi6 mi6 mi6 mi6 mi6 mi6 mi6 mi6 mi6 mi6 mi6 mi6 mi6 mi6 mi6 mi6 mi6 mi6 mi6 mi6 mi6 mi6 mi6 mi6 mi6 mi6 mi6 mi6 mi6 mi6 mi6 mi6 mi6 mi6 mi6 mi6 mi6 mi6 mi6 mi6 mi6 mi6 mi6 mi6 mi6 mi6 mi
Precipitation 99%99%100%100%80%39%57%61%65%65%64%64%56%54%54%55%56%27%25%27%27%27%27%0%4%10%16%39%19%0%0%0%0%0%3%6%6%6%10%20%23%27%23%32%34%34%37%40%
Humidity 87%90%87%86%84%82%80%83%86%86%84%80%75%69%67%66%65%63%63%64%66%69%72%73%75%76%77%77%75%75%75%75%75%76%74%70%66%63%61%60%62%64%65%65%67%67%68%68%
Dew Point 76°F76°F75°F75°F75°F74°F73°F74°F74°F74°F74°F73°F73°F72°F72°F72°F72°F71°F71°F72°F72°F73°F73°F73°F73°F74°F74°F73°F72°F72°F71°F71°F72°F72°F72°F72°F72°F71°F71°F71°F71°F72°F72°F72°F72°F72°F71°F71°F
Pressure 30.03"30.03"30.03"30.03"30"29.97"29.94"29.94"29.94"29.97"29.97"30"30"30"30"29.97"29.97"29.94"29.94"29.94"29.94"29.91"29.91"29.94"29.97"29.97"29.94"29.94"29.94"29.91"29.91"29.91"29.91"29.94"29.94"29.97"29.97"29.97"29.97"29.97"29.94"29.94"29.94"29.91"29.91"29.91"29.94"29.94"
Wind Speed 6.5 mph5.9 mph7.9 mph8.3 mph5.2 mph3.6 mph2.8 mph4.8 mph6.6 mph6.5 mph6.2 mph7.3 mph7.3 mph6.1 mph5.6 mph6.5 mph7.8 mph8.3 mph8.1 mph9.1 mph10 mph9.4 mph9.5 mph10.9 mph12.8 mph13.2 mph10.8 mph8 mph6.2 mph4.4 mph3 mph5.1 mph6.5 mph8.4 mph10 mph10.7 mph11.4 mph11.6 mph12 mph12.9 mph13.8 mph15.5 mph15.1 mph14.6 mph14.1 mph12.6 mph11.5 mph10.8 mph
Wind
Direction
184°
S
218°
SW
238°
WSW
289°
WNW
312°
NW
331°
NNW
333°
NNW
316°
NW
318°
NW
314°
NW
303°
WNW
305°
NW
311°
NW
321°
NW
339°
NNW

N
19°
NNE
29°
NNE
55°
NE
78°
ENE
97°
E
110°
ESE
127°
SE
150°
SSE
162°
SSE
170°
S
176°
S
198°
SSW
219°
SW
219°
SW
198°
SSW
164°
SSE
152°
SSE
153°
SSE
154°
SSE
153°
SSE
155°
SSE
149°
SSE
138°
SE
128°
SE
122°
ESE
121°
ESE
126°
SE
126°
SE
128°
SE
135°
SE
134°
SE
133°
SE

Daily Forecast

Date High Low Precip. Humidity
Today
Jul 23

Rain
89 °F
79 °F
100%
62%
Saturday
Jul 24

Rain
86 °F
78 °F
100%
66%
Sunday
Jul 25

Rain
87 °F
80 °F
39%
60%
Monday
Jul 26

Rain
85 °F
80 °F
91%
64%
Tuesday
Jul 27

Rain
86 °F
80 °F
100%
63%
Wednesday
Jul 28

Rain
89 °F
78 °F
97%
56%
Thursday
Jul 29

Rain
89 °F
78 °F
90%
59%
Friday
Jul 30

Rain
87 °F
80 °F
48%
63%
Saturday
Jul 31

Rain
87 °F
81 °F
39%
65%
Sunday
Aug 1

Rain
86 °F
82 °F
69%
66%
Monday
Aug 2

Rain
87 °F
82 °F
38%
60%
Tuesday
Aug 3

Clear
86 °F
81 °F
7%
62%
Wednesday
Aug 4

Rain
86 °F
81 °F
29%
66%
Thursday
Aug 5

Rain
86 °F
82 °F
87%
63%
Friday
Aug 6

Rain
85 °F
77 °F
100%
71%
Saturday
Aug 7

Rain
86 °F
75 °F
92%
61%

Temperature 8-14 Day Outlook



Precipitation 8-14 Day Outlook




Quick Links
Jupiter, Florida News
Jupiter, Florida Photos
Jupiter, Florida Videos




About Us
Contact Us
Site Map
Search Site
Advertise With Us
   
Jupiter.CoastalTown.com
THE JUPITER, FLORIDA WEBSITE

Copyright 2021, Coastal Town
Privacy    |    Legal